Track FAST 1 (USA 222) now! 10-day predictions FAST 1 (USA 222) is classified as:
1 37227U 10062F 22144.82055507 .00000770 00000-0 10905-3 0 9997 2 37227 71.9685 199.7244 0015485 14.2950 345.8648 14.80014720145891